Terug naar catalogus

STARLINK-1513

ActiefCommunicatieVLEO
NORAD 45786·PAYLOAD·🇺🇸 United States

Gelanceerd Jun 13, 2020 vanaf Cape Canaveral Space Force Station

Loading…

Volgende Passages (komende 24 uur)

TLE

VersSource: CelesTrak SupGP

Epoch: Sep 14, 2026, 20:57 UTC

1 45786C 20038BJ  26257.87340278  .00057402  00000+0  16398-2 0  2577
2 45786  53.1580  30.0013 0001477 316.7924 355.9532 15.35417249    16

Volg STARLINK-1513 in realtime met AllMySat

Download on the App Store